Theta_e
332 322 321 321 320 320 319 320 323 330 337 339 339 339 339 335 332 332 329 330 333 336 335 335 335 334 335 337 337 336 336 336 335 336 335 333 334 334 334 335 333 331 332
332 322 320 321 320 319 320 321 324 329 334 336 338 339 339 336 333 333 330 330 333 334 334 334 335 335 334 334 333 333 333 333 334 333 332 331 331 332 335 334 331 332 332
329 321 320 321 320 319 320 322 326 329 333 335 337 337 338 337 334 334 331 331 334 335 336 335 335 334 333 333 333 333 334 334 334 333 332 332 333 334 335 333 332 331 331
324 320 320 322 321 319 320 321 326 330 333 335 335 336 338 337 335 335 335 336 335 336 336 335 332 332 332 332 332 333 334 333 333 335 334 333 333 334 332 331 331 330 328
327 321 321 322 322 320 319 321 324 329 333 333 334 336 338 336 336 336 335 335 335 336 334 332 332 331 332 332 332 334 333 332 336 335 334 333 333 332 330 328 327 327 326
334 322 321 322 322 321 320 320 322 327 331 332 334 337 338 337 336 329 329 329 326 333 334 332 332 332 332 331 332 333 332 334 334 334 333 332 331 329 328 329 328 328 327
334 325 322 322 322 322 320 320 321 326 331 332 335 340 338 337 335 328 328 328 328 328 332 331 330 332 332 332 332 332 333 334 334 333 332 333 330 329 330 329 328 327 328
334 330 324 322 322 323 321 320 320 324 330 332 334 335 336 337 331 328 330 329 328 326 331 330 330 329 331 332 331 332 333 333 332 331 331 332 330 330 328 325 326 327 327
336 330 326 322 322 323 323 321 320 322 330 332 332 333 334 334 330 328 328 327 328 327 330 329 327 331 333 332 330 331 332 332 333 330 331 331 331 328 325 323 323 325 325
340 331 326 322 322 323 323 321 320 322 327 332 332 332 334 333 332 330 327 327 326 331 327 326 325 332 333 331 328 331 330 332 331 331 329 331 329 327 323 322 323 323 322
343 338 326 324 322 323 324 322 320 320 323 330 332 332 333 334 334 328 330 325 330 330 325 326 325 328 329 329 327 329 331 330 329 330 331 331 329 327 325 321 320 320 321
344 344 336 327 325 323 324 323 321 320 320 325 330 332 333 334 333 333 331 329 331 327 325 325 324 326 327 328 329 329 330 330 329 329 330 330 328 327 326 323 318 315 317
342 344 343 336 329 327 324 324 322 321 320 323 329 333 333 334 334 333 332 332 330 325 324 325 323 325 326 327 328 330 329 329 328 328 328 328 328 326 324 321 317 311 310
338 341 343 343 339 331 327 325 324 323 323 326 329 333 335 335 334 333 333 332 329 322 324 326 322 323 325 326 328 329 328 328 330 329 327 324 324 324 319 315 309 307 308
333 337 339 342 343 337 327 327 326 328 329 334 336 335 335 335 334 334 333 331 330 323 324 325 323 324 325 326 328 328 326 329 327 328 326 323 321 322 320 313 308 306 306
325 336 335 337 338 341 333 330 328 341 335 339 338 334 334 335 334 333 332 331 330 329 325 326 325 325 326 327 327 325 326 326 325 326 324 322 320 321 319 318 308 309 308
323 325 336 336 339 339 336 335 333 333 337 334 334 333 332 332 332 332 331 331 331 330 328 326 326 326 326 327 326 327 325 325 323 324 323 319 318 320 318 319 308 308 308
323 325 328 333 335 341 337 335 333 333 333 329 329 328 329 332 333 332 331 331 331 330 329 326 326 326 325 327 327 327 324 324 322 323 323 319 315 319 319 319 316 309 307
322 322 326 331 333 338 340 338 337 332 335 335 331 330 331 332 331 331 332 332 331 330 329 329 326 327 326 326 325 326 324 324 322 322 322 319 316 317 317 317 318 310 307
321 322 326 329 331 334 340 341 340 338 338 336 334 330 331 330 329 330 331 331 331 330 330 328 327 326 326 325 325 324 322 323 321 321 321 320 320 317 313 314 311 308 308
322 322 323 328 332 334 339 341 341 338 339 337 338 332 331 329 327 327 329 330 331 330 330 329 327 327 327 325 326 322 323 324 322 320 322 320 321 317 318 315 311 308 308
323 323 323 324 327 334 335 340 341 338 339 338 335 334 333 331 327 327 329 329 329 330 330 329 328 327 326 323 326 323 324 323 321 320 320 321 321 321 320 320 320 310 311
323 323 324 327 327 333 338 341 340 338 337 336 337 336 332 328 327 326 329 329 329 329 330 329 328 327 326 321 325 323 323 322 321 321 320 320 321 321 321 321 321 317 319
322 323 322 326 329 334 338 340 338 336 334 335 335 334 331 328 324 327 327 328 328 328 328 327 328 327 326 320 325 323 322 322 321 321 320 319 320 320 320 320 320 320 321
321 322 322 326 331 334 337 339 336 335 333 335 335 332 331 329 327 326 326 327 327 327 327 324 328 326 326 322 323 323 323 323 321 320 320 320 320 320 319 319 319 319 320
326 325 326 330 332 334 335 337 336 334 336 333 333 333 331 328 328 328 326 326 327 327 327 326 326 326 326 324 322 323 322 322 322 321 321 320 320 320 319 319 319 319 318
Wind_Speed
10 13 10 9 6 2 2 4 6 7 8 9 10 10 10 10 9 8 9 12 14 14 14 15 17 17 16 15 14 13 13 11 9 8 10 15 20 20 20 19 19 20 19
13 12 11 9 7 4 0 2 4 5 6 8 10 11 10 10 10 10 10 14 15 14 14 14 15 13 12 13 13 12 12 12 13 14 16 19 20 21 20 15 20 21 20
13 12 11 9 7 4 2 1 3 4 6 7 9 10 9 9 10 11 13 14 14 14 13 14 13 14 13 12 12 13 15 17 18 19 20 21 21 20 19 18 20 19 19
15 13 9 7 5 3 3 3 2 3 4 6 8 9 9 9 9 10 11 11 13 14 14 14 14 13 13 12 13 17 19 19 21 21 15 21 21 18 17 18 18 16 14
12 12 9 7 4 2 2 4 4 3 5 6 7 7 8 12 16 16 5 10 9 11 13 15 14 13 14 14 14 17 20 21 22 19 16 16 18 17 16 16 15 13 13
12 12 11 10 6 2 0 2 4 4 3 4 4 8 11 15 12 8 16 15 16 4 11 13 14 15 14 13 15 18 20 19 18 17 15 14 18 18 16 15 14 13 14
17 14 13 12 9 4 2 2 4 4 4 3 5 10 13 12 8 5 13 28 11 8 15 11 11 12 13 14 16 19 20 20 16 14 16 15 16 16 17 15 12 12 13
20 18 15 14 11 7 3 3 4 5 5 5 5 9 9 9 11 4 8 12 17 19 16 16 14 13 14 16 18 21 19 16 17 13 14 14 17 17 14 12 11 11 12
21 20 15 15 13 10 6 5 5 6 7 7 8 9 7 8 10 6 10 9 11 14 16 14 14 15 17 19 18 21 18 16 16 14 11 16 17 14 11 10 10 10 10
21 21 16 16 14 12 9 6 6 7 9 10 11 10 9 9 10 9 8 12 17 15 15 12 14 16 19 18 18 22 17 16 15 13 12 14 16 12 9 8 10 10 10
18 17 17 17 17 16 13 10 9 9 10 11 13 13 12 12 12 18 9 14 19 18 14 14 14 16 17 18 17 19 17 12 14 15 15 13 13 10 8 8 9 11 11
21 19 18 17 18 19 17 14 13 11 11 13 15 15 16 16 16 17 12 19 20 18 15 15 15 16 18 18 20 21 19 16 14 13 14 13 11 10 8 7 9 12 12
22 22 21 19 19 19 20 18 16 14 14 15 17 16 18 19 16 15 15 19 19 19 18 15 17 17 20 20 21 22 20 16 14 13 12 11 10 9 8 10 13 13 13
24 25 23 23 22 20 21 21 18 17 15 13 14 16 16 20 20 19 22 22 23 24 19 16 17 18 21 21 21 22 16 16 14 15 10 9 10 10 8 12 13 12 15
25 29 26 26 25 24 23 22 21 20 18 15 15 15 21 22 22 22 23 20 23 27 20 16 18 20 22 21 21 20 19 12 18 15 9 8 12 10 12 15 14 15 14
21 26 25 25 28 28 26 25 23 24 20 22 22 18 19 22 22 22 24 25 23 20 22 18 20 23 23 22 20 19 19 12 11 9 9 11 14 14 14 16 16 15 15
26 25 25 27 27 31 30 28 28 30 28 26 26 21 19 20 22 22 28 29 25 21 22 24 21 19 21 22 22 19 19 16 14 10 12 11 19 15 15 14 16 16 15
31 31 31 31 31 32 33 30 33 33 28 28 24 23 21 20 22 24 26 26 24 25 25 27 29 21 24 23 24 21 19 19 18 12 11 11 20 18 18 17 15 16 16
32 29 35 34 32 31 35 33 27 32 30 29 26 23 23 21 22 25 26 26 27 28 26 25 27 23 29 26 24 25 22 20 22 15 13 9 14 21 20 19 17 17 17
32 29 28 32 35 32 34 33 27 25 28 28 28 24 23 22 23 24 27 27 29 30 29 26 28 28 30 28 24 26 27 21 20 21 19 16 15 14 19 20 19 17 17
23 31 27 21 30 33 35 37 35 32 33 33 29 25 22 21 23 25 27 28 29 32 31 28 28 31 33 29 27 26 26 20 19 23 19 18 15 17 13 15 12 16 16
27 28 28 29 23 32 36 39 37 33 34 30 32 28 25 23 22 25 27 29 30 31 33 31 30 34 29 35 31 33 23 22 24 22 24 21 18 16 17 13 13 17 14
28 26 27 26 24 32 35 34 34 34 29 24 30 28 27 26 25 25 28 29 30 34 34 33 32 36 36 39 32 35 19 14 30 23 25 27 23 24 20 17 10 11 10
33 33 32 24 25 30 36 39 38 36 35 33 32 29 26 24 25 29 29 31 31 31 33 33 36 34 39 45 33 31 32 26 35 24 26 27 25 26 25 23 19 18 16
16 23 26 26 26 30 37 41 35 34 33 26 29 29 29 25 21 23 29 32 31 33 31 34 38 41 41 46 42 36 33 23 33 31 29 30 26 28 28 24 22 24 26
14 25 29 28 26 31 36 34 30 33 30 25 23 23 22 22 23 25 24 30 34 34 32 35 40 37 44 45 49 41 41 31 34 29 32 34 33 28 29 29 23 21 21
Wind_Direction
116 124 115 101 86 85 206 227 231 216 203 203 204 210 218 215 210 210 190 181 178 173 172 171 170 169 168 162 156 162 166 164 161 153 133 125 113 109 109 112 117 114 114
139 121 108 92 70 51 287 227 238 226 208 203 204 212 222 218 213 217 198 185 179 176 172 166 170 169 167 166 161 164 167 162 152 139 137 129 123 120 117 120 118 116 117
138 119 110 93 66 42 338 247 230 220 207 204 207 213 218 218 216 222 206 192 181 173 171 167 165 167 164 163 153 143 136 130 125 123 129 127 122 124 123 121 119 121 122
136 125 113 117 95 53 342 298 250 228 208 198 203 211 216 210 211 213 205 193 187 176 172 168 165 163 157 150 143 137 132 126 123 118 131 130 128 127 127 124 121 124 124
156 146 146 156 136 86 356 302 282 238 204 196 200 202 203 195 207 202 128 193 203 186 176 170 165 161 155 147 145 138 132 132 127 134 132 133 134 131 130 127 130 131 130
161 176 173 175 169 163 252 304 282 259 225 197 180 181 192 211 208 21 210 227 207 358 175 168 160 158 155 151 148 141 136 125 130 133 130 145 141 140 138 135 131 127 131
175 193 193 187 185 184 208 263 276 263 244 203 187 184 206 219 156 36 205 192 239 266 164 168 172 171 166 159 150 144 138 127 131 139 155 155 147 144 138 137 137 141 142
190 206 203 198 197 195 202 204 240 252 239 205 195 211 218 218 174 110 160 163 174 150 169 173 192 186 173 161 149 150 148 136 153 170 168 151 146 147 143 145 150 153 154
201 216 211 204 204 206 208 203 207 227 221 212 220 231 216 198 190 195 187 189 186 186 181 181 199 184 171 160 153 161 156 151 162 170 161 159 155 150 151 153 162 167 165
209 224 214 209 211 213 216 211 206 211 220 215 231 225 214 209 225 221 204 226 194 190 192 189 196 188 173 163 165 170 165 164 156 168 181 172 158 156 160 169 177 180 179
210 225 225 216 215 215 218 214 208 208 214 221 226 228 219 224 218 196 240 197 184 197 195 193 193 192 187 175 171 175 161 169 159 178 177 166 169 172 178 179 192 192 189
206 217 224 228 221 217 219 219 212 211 215 218 227 228 222 222 220 216 223 189 183 189 187 196 193 198 194 188 176 172 174 169 177 171 176 177 181 187 190 193 201 204 199
206 213 216 224 229 225 218 223 215 215 214 215 222 229 226 219 221 211 213 197 189 186 192 197 195 197 196 195 185 177 179 160 174 189 191 199 199 206 212 207 199 199 185
200 216 215 221 222 226 226 223 223 219 214 216 216 216 223 217 224 217 202 198 198 195 207 212 195 199 195 194 188 184 172 165 185 184 183 201 207 210 215 192 179 177 174
209 210 219 212 223 224 230 221 221 230 211 208 221 217 223 222 227 216 201 202 209 206 217 215 197 193 191 193 184 177 152 161 192 187 210 212 196 199 182 173 172 173 173
224 213 220 222 222 228 228 225 217 222 223 200 214 226 225 229 222 211 197 199 216 217 223 209 199 198 193 187 184 174 164 155 183 206 237 219 189 186 175 170 176 169 168
232 224 214 224 229 227 230 219 219 221 223 220 213 221 230 228 223 214 207 208 220 219 214 201 197 198 199 182 173 165 175 187 186 208 227 204 183 182 173 173 180 170 167
228 218 216 221 231 221 233 230 220 219 225 231 225 216 228 233 229 223 219 222 222 217 211 208 207 220 202 192 171 179 186 189 183 208 226 227 192 177 176 177 182 176 169
227 228 218 215 223 224 227 234 234 224 218 229 233 218 219 230 232 228 222 221 221 214 213 215 213 210 195 190 184 185 184 190 188 189 214 207 189 187 185 179 186 182 174
228 230 221 215 220 224 219 230 232 221 223 225 231 223 218 224 229 226 221 218 218 218 216 214 212 202 199 191 187 187 186 190 200 183 204 202 198 201 193 189 189 184 184
223 224 213 201 214 217 216 217 220 213 227 214 224 226 225 223 224 221 220 215 214 216 220 219 208 205 201 206 189 183 186 189 180 186 197 196 201 188 187 177 193 196 193
226 230 215 216 217 222 225 218 215 212 223 220 223 222 228 226 222 220 217 214 210 212 218 217 207 202 205 188 197 180 175 189 190 195 192 192 199 175 196 210 225 208 189
229 229 216 218 216 224 218 205 213 210 218 229 223 226 225 219 223 219 213 214 212 214 216 220 214 207 196 191 199 183 162 188 185 192 197 193 198 183 199 208 204 186 214
233 225 226 232 215 218 213 213 211 214 212 218 212 217 226 228 222 218 216 217 217 215 218 224 222 215 205 190 201 192 197 195 176 186 198 200 204 197 194 203 204 192 207
221 226 226 231 212 214 221 226 217 212 215 214 218 232 229 228 230 223 220 217 221 221 219 218 224 226 211 198 200 196 196 192 201 191 186 197 207 206 200 206 209 211 206
240 232 208 208 208 219 227 225 223 205 215 222 215 220 224 220 222 229 221 219 220 225 224 220 224 217 207 212 204 203 201 201 198 197 188 193 199 202 205 206 204 218 222